When you browse on this site, cookies collect data to enhance your experience and personalize the content and advertising you see.
Visit our Privacy Policy to learn more. By continuing to use the site, you agree to this use of cookies and data.
  • In Hungary
  • List of Countries
  • For 7 days
  • Water Temperature
  • Satellite Maps
  • Weather Map
  • News
  • Weather Widgets
  • user-avatar
    Login

    Hourly Weather Bahawalpur

    Today, 17 November, Saturday

    Time Temperature Precipitation Wind Pressure Humidity
    00:00 +23°C° 0 mm 2 mps 749 mmHg 30%
    01:00 +23°C° 0 mm 2 mps 749 mmHg 31%
    02:00 +23°C° 0 mm 2 mps 749 mmHg 32%
    03:00 +21°C° 0 mm 2 mps 749 mmHg 32%
    04:00 +21°C° 0 mm 2 mps 749 mmHg 33%
    05:00 +20°C° 0 mm 2 mps 749 mmHg 35%
    06:00 +21°C° 0 mm 2 mps 749 mmHg 33%
    07:00 +23°C° 0 mm 1 mps 749 mmHg 32%
    08:00 +23°C° 0 mm 1 mps 750 mmHg 30%
    09:00 +25°C° 0 mm 1 mps 749 mmHg 27%
    10:00 +28°C° 0 mm 1 mps 749 mmHg 23%
    11:00 +30°C° 0 mm 2 mps 750 mmHg 18%
    12:00 +31°C° 0 mm 2 mps 749 mmHg 17%
    13:00 +32°C° 0 mm 2 mps 748 mmHg 16%
    14:00 +34°C° 0 mm 2 mps 748 mmHg 14%
    15:00 +31°C° 0 mm 2 mps 747 mmHg 15%
    16:00 +30°C° 0 mm 2 mps 747 mmHg 16%
    17:00 +29°C° 0 mm 1 mps 747 mmHg 17%
    18:00 +28°C° 0 mm 1 mps 747 mmHg 18%
    19:00 +27°C° 0 mm 1 mps 747 mmHg 19%
    20:00 +26°C° 0 mm 1 mps 747 mmHg 20%
    21:00 +25°C° 0 mm 1 mps 747 mmHg 21%
    22:00 +25°C° 0 mm 2 mps 747 mmHg 21%
    23:00 +25°C° 0 mm 2 mps 747 mmHg 22%

    Tomorrow, 18 November, Sunday

    Time Temperature Precipitation Wind Pressure Humidity
    00:00 +24°C° 0 mm 2 mps 747 mmHg 23%
    01:00 +24°C° 0 mm 2 mps 747 mmHg 23%
    02:00 +23°C° 0 mm 2 mps 747 mmHg 24%
    03:00 +23°C° 0 mm 2 mps 747 mmHg 25%
    04:00 +23°C° 0 mm 2 mps 747 mmHg 25%
    05:00 +21°C° 0 mm 2 mps 748 mmHg 26%
    06:00 +23°C° 0 mm 2 mps 748 mmHg 25%
    07:00 +23°C° 0 mm 2 mps 749 mmHg 25%
    08:00 +24°C° 0 mm 2 mps 749 mmHg 24%
    09:00 +26°C° 0 mm 2 mps 749 mmHg 22%
    10:00 +28°C° 0 mm 2 mps 749 mmHg 19%
    11:00 +30°C° 0 mm 2 mps 750 mmHg 16%
    12:00 +31°C° 0 mm 2 mps 749 mmHg 16%
    13:00 +32°C° 0 mm 2 mps 748 mmHg 15%
    14:00 +34°C° 0 mm 2 mps 748 mmHg 14%
    15:00 +32°C° 0 mm 2 mps 748 mmHg 15%
    16:00 +31°C° 0 mm 2 mps 748 mmHg 17%
    17:00 +29°C° 0 mm 1 mps 748 mmHg 18%
    18:00 +28°C° 0 mm 2 mps 748 mmHg 19%
    19:00 +27°C° 0 mm 2 mps 749 mmHg 20%
    20:00 +26°C° 0 mm 3 mps 749 mmHg 21%
    21:00 +25°C° 0 mm 3 mps 749 mmHg 22%
    22:00 +25°C° 0 mm 3 mps 749 mmHg 22%
    23:00 +24°C° 0 mm 3 mps 749 mmHg 23%

    Day after tomorrow, 19 November, Monday

    Time Temperature Precipitation Wind Pressure Humidity
    00:00 +22°C° 0 mm 3 mps 750 mmHg 24%
    01:00 +22°C° 0 mm 3 mps 750 mmHg 25%
    02:00 +21°C° 0 mm 3 mps 750 mmHg 25%
    03:00 +21°C° 0 mm 3 mps 750 mmHg 26%
    04:00 +20°C° 0 mm 3 mps 750 mmHg 27%
    05:00 +20°C° 0 mm 3 mps 750 mmHg 27%
    06:00 +20°C° 0 mm 4 mps 750 mmHg 26%
    07:00 +21°C° 0 mm 4 mps 751 mmHg 25%
    08:00 +21°C° 0 mm 4 mps 751 mmHg 24%
    09:00 +25°C° 0 mm 4 mps 752 mmHg 22%
    10:00 +27°C° 0 mm 3 mps 752 mmHg 19%
    11:00 +30°C° 0 mm 3 mps 752 mmHg 16%
    12:00 +31°C° 0 mm 3 mps 752 mmHg 15%
    13:00 +33°C° 0 mm 3 mps 751 mmHg 15%
    14:00 +34°C° 0 mm 3 mps 751 mmHg 14%
    15:00 +33°C° 0 mm 3 mps 751 mmHg 15%
    16:00 +31°C° 0 mm 2 mps 751 mmHg 16%
    17:00 +30°C° 0 mm 2 mps 751 mmHg 17%
    18:00 +28°C° 0 mm 2 mps 751 mmHg 18%
    19:00 +27°C° 0 mm 3 mps 752 mmHg 19%
    20:00 +26°C° 0 mm 3 mps 752 mmHg 20%
    21:00 +25°C° 0 mm 3 mps 752 mmHg 21%
    22:00 +24°C° 0 mm 3 mps 752 mmHg 21%
    23:00 +22°C° 0 mm 3 mps 752 mmHg 22%

    20 November, Tuesday

    Time Temperature Precipitation Wind Pressure Humidity
    00:00 +22°C° 0 mm 3 mps 752 mmHg 22%
    01:00 +21°C° 0 mm 3 mps 752 mmHg 23%
    02:00 +21°C° 0 mm 3 mps 752 mmHg 24%
    03:00 +21°C° 0 mm 3 mps 752 mmHg 24%
    04:00 +20°C° 0 mm 3 mps 752 mmHg 25%
    05:00 +20°C° 0 mm 3 mps 752 mmHg 25%
    06:00 +20°C° 0 mm 3 mps 753 mmHg 25%
    07:00 +21°C° 0 mm 3 mps 753 mmHg 24%
    08:00 +21°C° 0 mm 3 mps 754 mmHg 23%
    09:00 +25°C° 0 mm 3 mps 754 mmHg 20%
    10:00 +27°C° 0 mm 3 mps 754 mmHg 18%
    11:00 +30°C° 0 mm 3 mps 754 mmHg 15%
    12:00 +30°C° 0 mm 2 mps 753 mmHg 14%
    13:00 +31°C° 0 mm 2 mps 753 mmHg 14%
    14:00 +32°C° 0 mm 2 mps 752 mmHg 13%
    15:00 +31°C° 0 mm 1 mps 752 mmHg 14%
    16:00 +29°C° 0 mm 1 mps 751 mmHg 15%
    17:00 +28°C° 0 mm 1 mps 751 mmHg 16%
    18:00 +27°C° 0 mm 1 mps 752 mmHg 17%
    19:00 +26°C° 0 mm 1 mps 752 mmHg 18%
    20:00 +24°C° 0 mm 1 mps 753 mmHg 19%
    21:00 +24°C° 0 mm 1 mps 753 mmHg 20%
    22:00 +23°C° 0 mm 1 mps 753 mmHg 20%
    23:00 +23°C° 0 mm 1 mps 753 mmHg 21%

    21 November, Wednesday

    Time Temperature Precipitation Wind Pressure Humidity
    00:00 +22°C° 0 mm 1 mps 753 mmHg 21%
    01:00 +22°C° 0 mm 1 mps 752 mmHg 21%
    02:00 +21°C° 0 mm 1 mps 752 mmHg 21%
    03:00 +21°C° 0 mm 1 mps 752 mmHg 22%
    04:00 +21°C° 0 mm 1 mps 751 mmHg 22%
    05:00 +20°C° 0 mm 1 mps 751 mmHg 23%
    06:00 +21°C° 0 mm 1 mps 752 mmHg 22%
    07:00 +22°C° 0 mm 1 mps 752 mmHg 21%
    08:00 +23°C° 0 mm 2 mps 753 mmHg 20%
    09:00 +26°C° 0 mm 2 mps 753 mmHg 18%
    10:00 +28°C° 0 mm 2 mps 753 mmHg 16%
    11:00 +30°C° 0 mm 2 mps 753 mmHg 14%
    12:00 +31°C° 0 mm 2 mps 752 mmHg 14%
    13:00 +32°C° 0 mm 1 mps 751 mmHg 13%
    14:00 +32°C° 0 mm 1 mps 750 mmHg 13%
    15:00 +31°C° 0 mm 1 mps 750 mmHg 14%
    16:00 +30°C° 0 mm 1 mps 750 mmHg 16%
    17:00 +26°C° 0 mm 0 mps 750 mmHg 17%
    18:00 +27°C° 0 mm 1 mps 750 mmHg 18%
    19:00 +27°C° 0 mm 1 mps 751 mmHg 18%
    20:00 +26°C° 0 mm 2 mps 751 mmHg 19%
    21:00 +25°C° 0 mm 2 mps 751 mmHg 19%
    22:00 +25°C° 0 mm 2 mps 751 mmHg 20%
    23:00 +24°C° 0 mm 2 mps 751 mmHg 21%

    22 November, Thursday

    Time Temperature Precipitation Wind Pressure Humidity
    00:00 +24°C° 0 mm 2 mps 751 mmHg 21%
    01:00 +23°C° 0 mm 2 mps 751 mmHg 22%
    02:00 +23°C° 0 mm 1 mps 751 mmHg 23%
    03:00 +22°C° 0 mm 1 mps 751 mmHg 23%
    04:00 +22°C° 0 mm 1 mps 751 mmHg 24%
    05:00 +22°C° 0 mm 1 mps 751 mmHg 24%
    06:00 +22°C° 0 mm 1 mps 751 mmHg 23%
    07:00 +23°C° 0 mm 2 mps 752 mmHg 22%
    08:00 +24°C° 0 mm 2 mps 752 mmHg 21%
    09:00 +26°C° 0 mm 2 mps 752 mmHg 19%
    10:00 +29°C° 0 mm 2 mps 752 mmHg 16%
    11:00 +31°C° 0 mm 2 mps 752 mmHg 14%
    12:00 +32°C° 0 mm 2 mps 752 mmHg 13%
    13:00 +32°C° 0 mm 2 mps 751 mmHg 12%
    14:00 +34°C° 0 mm 2 mps 750 mmHg 12%
    15:00 +32°C° 0 mm 2 mps 750 mmHg 13%
    16:00 +30°C° 0 mm 1 mps 750 mmHg 15%
    17:00 +29°C° 0 mm 1 mps 750 mmHg 16%
    18:00 +28°C° 0 mm 2 mps 751 mmHg 17%
    19:00 +27°C° 0 mm 3 mps 752 mmHg 17%
    20:00 +26°C° 0 mm 4 mps 752 mmHg 18%
    21:00 +25°C° 0 mm 4 mps 752 mmHg 18%
    22:00 +23°C° 0 mm 4 mps 753 mmHg 18%
    23:00 +22°C° 0 mm 4 mps 753 mmHg 19%
    Show more